Temp
9 9 9 8 8 7 6 7 7 7 8 9 9 10 10 10 10 10 10 9 10 10 10 10 10 9 9 8 8 8 8 8 8 7 7 6 6 5
9 8 8 8 8 7 7 7 7 6 7 9 8 8 8 9 9 9 9 9 9 9 9 9 9 9 9 8 8 8 8 7 7 7 6 5 5 4
9 8 8 8 8 7 7 7 6 6 6 6 7 7 7 8 8 9 9 8 8 8 9 9 9 9 8 8 7 7 7 7 7 6 5 4 4 2
9 8 8 8 8 8 6 5 5 5 5 5 5 6 6 6 7 7 8 9 8 8 8 8 8 9 8 7 7 6 6 6 6 4 4 3 2 1
8 8 9 8 9 8 6 5 5 5 5 5 5 5 5 5 6 6 7 7 8 8 8 8 8 8 8 7 7 6 6 5 5 3 3 2 1 0
7 7 8 7 7 6 5 5 4 4 4 4 4 4 4 4 5 5 5 6 7 7 8 8 7 8 7 7 6 6 5 5 3 3 3 1 -0 -1
5 5 6 6 5 4 4 4 4 4 3 3 3 3 3 3 4 4 4 6 5 6 6 6 6 6 6 6 5 5 4 4 3 3 2 1 -1 -2
5 5 6 5 4 2 2 3 3 3 2 2 2 3 3 3 3 3 3 2 2 4 5 4 5 5 4 4 4 4 4 3 3 2 2 0 -1 -2
2 2 2 2 2 2 1 2 3 3 3 2 2 2 2 2 2 2 3 3 4 3 3 0 2 2 2 1 3 3 3 2 1 1 -0 -0 -2 -3
1 1 0 0 1 1 1 1 1 2 2 2 2 1 1 2 2 2 3 1 1 0 0 -2 -2 -2 -1 -1 0 1 2 1 -0 -1 -1 -1 -3 -3
2 2 2 1 1 1 1 1 2 2 2 2 1 0 1 1 2 1 0 -1 -1 -3 -2 -3 -3 -3 -3 -3 -2 0 -1 -1 -3 -1 -2 -2 -4 -5
-0 0 1 1 2 1 1 1 0 1 1 1 -0 -0 0 1 1 1 -0 -1 -2 -3 -3 -4 -4 -3 -4 -3 -3 -3 -3 -4 -3 -2 -3 -4 -5 -5
-1 -1 -0 0 1 1 1 1 1 1 -0 -1 -1 -1 -1 -0 -0 -0 -0 -1 -2 -3 -3 -3 -4 -4 -4 -4 -4 -4 -4 -4 -4 -5 -5 -5 -5 -6
-2 -2 -1 -1 -0 0 0 0 -0 -1 -1 -2 -2 -2 -2 -2 -2 -1 -1 -1 -1 -0 -3 -3 -3 -4 -4 -4 -4 -4 -4 -4 -4 -5 -5 -6 -6 -6
-3 -2 -1 -1 -1 -0 -1 -1 -1 -2 -2 -3 -3 -3 -3 -3 -3 -2 -2 -2 -2 -3 -2 -2 -3 -4 -4 -4 -5 -5 -5 -5 -5 -5 -6 -6 -6 -6
-3 -2 -2 -1 -2 -2 -2 -2 -3 -3 -3 -4 -4 -4 -4 -4 -4 -3 -3 -3 -3 -4 -3 -3 -3 -2 -4 -4 -5 -5 -6 -6 -5 -6 -6 -6 -6 -6
-3 -3 -2 -2 -3 -3 -3 -3 -3 -3 -4 -4 -5 -5 -5 -4 -5 -4 -4 -4 -5 -6 -6 -4 -4 -3 -4 -5 -6 -6 -5 -6 -6 -6 -7 -6 -6 -6
-3 -3 -3 -3 -3 -3 -3 -4 -4 -4 -5 -5 -5 -5 -5 -5 -5 -5 -5 -6 -7 -7 -7 -6 -5 -6 -6 -6 -6 -6 -5 -6 -6 -6 -6 -6 -7 -7
-2 -3 -3 -3 -3 -3 -3 -4 -4 -5 -5 -5 -5 -5 -5 -6 -6 -6 -7 -7 -7 -7 -7 -6 -6 -5 -6 -8 -8 -6 -5 -7 -7 -7 -6 -6 -7 -7
-3 -3 -3 -3 -3 -3 -4 -4 -4 -5 -5 -5 -5 -5 -6 -6 -7 -7 -7 -7 -8 -8 -7 -6 -5 -5 -6 -8 -8 -8 -6 -5 -6 -7 -7 -8 -8 -9
-3 -3 -3 -3 -3 -3 -4 -4 -4 -5 -5 -5 -5 -5 -5 -5 -6 -7 -7 -7 -7 -7 -8 -7 -6 -5 -5 -6 -9 -10 -8 -8 -7 -7 -8 -9 -9 -10
-3 -3 -3 -3 -4 -3 -4 -4 -5 -5 -5 -5 -5 -5 -5 -5 -6 -7 -7 -8 -7 -7 -8 -8 -7 -6 -6 -7 -10 -9 -9 -9 -9 -9 -9 -9 -10 -11
-3 -3 -3 -4 -4 -4 -4 -4 -4 -5 -5 -5 -5 -5 -5 -5 -5 -6 -6 -6 -7 -7 -8 -9 -8 -7 -7 -8 -8 -9 -9 -10 -10 -10 -11 -11 -12 -12
Height
771 768 766 764 763 761 765 763 756 750 747 745 743 742 740 737 735 738 739 742 742 745 750 754 758 764 769 775 783 789 796 802 810 818 824 827 832 837
767 764 763 760 758 757 751 756 756 754 746 743 741 741 739 736 735 734 732 736 734 739 742 745 748 753 759 766 775 781 790 797 805 810 820 823 829 833
761 759 757 754 752 751 751 750 749 748 747 739 738 736 735 734 730 729 729 728 727 729 733 737 740 743 748 757 766 774 782 790 799 808 814 819 828 828
755 754 751 749 747 746 745 742 742 743 743 736 734 732 732 731 729 725 723 721 721 721 724 728 734 736 741 748 757 767 776 785 792 802 807 814 824 828
750 748 746 744 741 740 738 737 737 737 735 733 724 726 724 726 723 720 719 715 713 713 715 719 724 727 733 740 748 758 767 778 788 795 804 810 820 827
747 742 740 738 736 735 734 732 732 730 729 727 722 719 718 720 721 720 715 710 706 705 709 710 712 716 723 729 738 749 760 770 782 790 798 807 817 822
742 740 735 733 731 730 729 726 725 723 722 721 719 714 712 711 712 710 708 703 698 699 699 701 707 711 714 719 730 741 753 765 777 785 795 804 814 819
736 733 729 727 725 723 722 720 718 716 715 714 711 710 706 705 704 702 703 697 695 693 693 697 699 706 712 714 721 732 746 758 771 782 792 800 811 816
732 728 722 720 720 717 713 711 710 709 708 706 705 705 702 702 699 697 696 692 689 690 692 697 701 706 715 715 716 726 740 753 768 780 791 799 808 814
726 723 718 714 712 711 707 704 702 701 701 699 697 698 697 696 694 690 689 688 687 690 692 703 707 711 717 721 718 727 740 753 767 778 790 797 807 811
719 716 712 707 705 705 701 697 694 693 694 692 690 691 691 689 685 686 684 685 690 695 697 702 713 718 726 728 729 736 746 758 770 780 789 795 803 809
713 709 705 701 698 696 693 691 688 686 686 686 685 685 684 681 682 681 680 682 687 697 702 709 716 718 733 739 740 748 755 765 775 780 788 793 802 806
709 703 699 695 692 689 687 685 684 683 683 682 682 682 680 680 681 680 679 680 685 691 698 702 713 717 725 739 749 755 761 768 774 781 786 795 800 804
705 700 695 690 686 683 682 681 681 680 681 681 681 680 681 681 681 681 682 685 686 688 695 701 709 714 723 739 748 757 763 769 774 779 787 794 799 803
702 696 691 686 683 680 679 679 678 679 679 679 679 680 683 682 682 683 686 688 691 696 701 705 709 717 724 732 742 753 761 770 775 781 786 790 796 802
696 692 688 684 681 680 679 678 679 680 679 680 681 684 686 685 684 686 689 693 696 703 707 711 714 719 727 735 742 753 760 766 775 780 786 792 797 801
692 689 685 683 682 681 681 680 681 680 681 682 685 687 687 687 689 691 693 696 701 708 712 716 720 725 731 737 747 754 760 767 774 780 786 791 795 798
688 686 684 683 682 682 682 683 683 684 684 686 689 690 690 691 692 695 697 700 706 712 716 721 724 730 737 746 751 755 762 767 774 780 785 789 793 798
685 684 683 682 682 682 683 683 685 686 687 689 691 692 693 695 696 700 703 707 713 717 721 725 728 731 739 748 757 760 762 770 776 782 786 790 794 798
686 684 683 682 681 682 683 684 686 687 689 692 694 695 697 698 701 704 709 712 717 723 727 731 734 736 740 749 756 765 770 772 777 782 787 791 794 797
686 684 683 682 682 682 683 685 686 688 691 693 696 698 700 702 705 709 712 717 721 726 732 736 740 743 745 750 758 768 773 777 780 783 785 789 792 794
686 684 683 682 682 683 684 685 687 689 692 695 698 700 703 705 709 712 717 721 726 730 736 741 745 748 751 754 761 767 773 777 781 784 786 788 790 791
685 683 682 682 682 683 684 685 687 690 693 696 699 702 705 708 712 716 720 725 729 733 738 743 748 752 756 760 764 769 774 778 781 783 785 786 787 788
Wind_Speed
16 18 18 17 14 17 23 21 12 5 5 12 15 14 20 27 36 41 42 45 47 52 57 55 53 50 49 45 42 40 36 34 31 28 25 22 20 18
21 20 20 22 24 19 19 24 20 16 8 18 20 24 24 26 28 35 40 45 44 47 55 58 58 57 53 49 46 42 39 36 33 31 26 23 20 18
21 21 18 15 17 15 18 19 20 15 12 21 20 24 25 29 30 30 33 40 40 45 50 57 59 60 57 54 49 45 42 40 35 32 28 24 19 19
23 22 25 23 23 21 19 16 17 18 18 19 19 19 25 27 31 31 34 36 38 40 46 51 60 59 57 57 52 48 46 42 38 36 32 27 21 16
25 24 26 24 26 28 22 18 18 18 20 22 25 20 22 26 29 32 30 35 35 41 45 48 59 63 61 60 56 52 49 44 40 37 34 31 22 18
24 23 23 27 29 28 25 23 20 19 18 19 23 23 22 21 25 24 29 29 33 35 43 48 56 63 65 63 60 56 51 48 45 40 35 32 26 24
31 31 29 25 25 25 25 22 20 20 17 16 19 21 22 21 19 19 27 31 30 32 32 38 43 46 56 62 61 58 51 51 46 40 36 31 29 25
32 35 34 33 31 27 22 23 23 23 19 16 17 17 23 22 22 22 28 6 2 20 19 17 33 35 43 52 59 59 58 52 45 41 34 29 27 20
29 33 36 33 29 27 26 23 22 23 26 25 20 21 24 25 24 24 29 23 17 15 23 11 21 26 29 43 62 62 58 50 43 36 31 28 26 20
28 29 31 31 29 25 27 26 24 26 26 22 23 28 32 34 30 31 28 13 15 18 18 6 16 18 26 36 56 54 49 45 39 30 30 27 21 19
30 30 31 31 28 25 26 27 25 27 23 20 24 24 21 24 24 21 16 17 4 5 7 21 13 26 24 28 38 42 40 33 31 31 25 20 21 19
26 29 31 29 27 24 24 24 22 24 22 23 20 21 20 18 20 26 25 17 14 6 16 11 23 21 8 18 32 31 29 28 28 24 23 20 19 18
26 27 27 30 28 23 20 18 21 21 20 16 15 12 11 14 17 16 23 30 19 6 24 22 16 18 10 17 19 30 30 28 26 22 20 18 16 16
25 27 30 29 24 19 16 15 15 15 13 11 7 4 5 9 11 14 19 19 18 15 34 27 17 20 20 15 12 23 26 28 27 25 21 17 15 12
28 29 27 22 19 15 12 11 10 10 10 7 6 6 9 15 20 21 18 15 18 22 24 23 29 26 26 17 16 22 24 25 26 24 20 20 20 18
25 25 24 17 11 8 7 4 5 9 8 8 9 11 15 18 22 24 25 25 27 23 17 17 24 27 22 27 29 23 28 13 25 22 21 19 18 15
28 22 18 10 4 3 3 3 4 5 7 10 13 14 16 20 21 24 26 21 20 17 24 23 22 23 23 29 23 25 25 24 25 25 22 19 15 13
19 15 14 8 6 7 7 6 5 6 9 13 14 15 17 19 20 20 22 24 22 20 24 27 31 30 26 22 21 27 24 22 25 22 19 20 15 13
12 11 12 9 8 10 10 9 8 8 11 14 15 16 18 20 22 21 22 24 20 21 22 26 22 23 8 4 9 16 24 23 24 22 20 17 17 15
9 10 9 9 10 12 12 11 11 12 13 14 15 17 18 21 20 20 20 22 22 21 21 19 20 19 18 7 9 13 18 24 23 20 15 12 10 10
12 10 9 9 11 13 13 13 13 15 15 16 16 18 19 21 20 22 23 25 27 23 20 20 15 14 19 22 19 13 16 14 11 13 12 9 6 7
13 11 10 9 12 14 15 15 15 16 17 16 17 18 19 22 24 24 26 27 26 27 26 23 22 19 18 23 21 16 15 12 9 8 7 8 5 4
15 13 11 10 13 15 16 16 17 17 17 16 16 17 18 20 22 24 25 27 28 28 26 23 17 16 18 19 20 17 13 13 10 8 7 6 7 9
Wind_Direction
303 299 290 288 301 283 295 292 300 300 292 288 310 305 281 265 255 246 245 240 238 231 222 220 218 212 205 202 197 196 195 190 190 187 184 178 175 173
288 287 290 290 284 267 251 291 294 290 284 284 288 290 298 292 276 258 253 248 244 237 232 225 219 216 208 201 198 195 192 188 187 182 181 173 173 165
279 277 273 278 276 281 287 285 287 272 276 286 285 292 296 296 288 276 266 249 243 241 237 230 221 215 207 201 198 193 190 185 184 179 168 162 170 162
273 274 276 275 269 271 272 278 266 270 261 280 287 280 285 292 286 283 272 266 247 240 238 235 227 219 210 202 195 190 186 183 178 176 174 165 171 169
271 275 279 278 277 281 280 287 280 277 263 265 284 283 285 294 286 284 275 264 255 247 244 238 230 220 213 201 192 188 184 182 181 168 169 174 175 170
288 274 281 278 277 287 290 283 279 277 270 267 276 284 284 288 279 277 279 262 255 242 240 237 225 219 207 197 189 184 181 181 176 176 177 177 173 174
314 300 296 298 294 284 280 275 270 268 256 255 267 281 284 288 284 286 278 267 244 238 227 220 215 205 190 188 183 181 181 177 182 185 182 184 183 180
285 296 298 296 294 290 287 276 272 270 261 255 265 270 283 279 282 279 277 205 260 217 197 193 194 188 179 171 171 178 178 178 182 183 187 186 184 175
300 293 293 294 294 292 299 285 279 274 267 265 262 268 277 273 273 279 267 229 227 192 161 111 157 155 170 164 170 173 175 176 179 179 183 178 181 189
297 294 291 291 292 293 296 287 283 281 279 267 274 279 283 281 279 276 257 210 157 151 158 82 128 124 145 149 154 163 169 175 176 173 177 178 188 198
304 300 295 290 291 290 289 282 284 284 282 277 285 283 282 282 280 234 163 138 108 79 104 113 110 104 113 127 143 166 165 164 163 168 173 182 187 177
307 303 303 298 299 292 283 280 276 283 286 292 279 278 287 287 272 229 183 147 131 90 139 109 131 112 72 114 134 142 147 154 163 167 172 179 176 179
309 305 301 303 302 298 285 271 271 281 287 283 271 279 283 247 219 211 182 165 147 104 161 134 151 114 96 137 142 151 154 157 157 156 156 165 171 186
304 304 308 307 300 293 282 273 273 276 273 254 245 231 188 178 187 176 168 159 170 171 166 158 147 140 132 128 132 155 160 163 162 159 163 168 170 184
302 310 316 305 297 290 276 281 277 261 233 195 160 142 167 154 152 144 143 142 119 142 160 168 158 144 137 141 137 142 139 158 170 166 168 161 169 182
306 311 316 308 300 290 281 266 246 225 207 184 150 147 146 135 127 136 124 120 113 105 133 150 161 164 136 143 145 146 150 147 168 169 164 168 181 188
305 302 297 296 281 258 227 212 200 194 174 159 152 142 130 126 120 132 132 124 112 111 108 129 145 150 142 147 132 141 145 149 167 165 168 176 185 190
299 278 277 274 224 208 180 165 163 165 156 153 148 138 124 119 119 122 124 115 111 111 113 123 126 112 105 95 138 140 149 151 169 172 176 170 169 179
290 274 278 258 227 204 193 185 162 164 160 154 152 142 132 125 123 115 114 114 107 114 120 128 128 124 109 99 89 152 151 157 162 167 176 180 182 191
305 288 277 257 221 201 192 181 171 162 161 159 154 147 139 134 123 119 121 119 117 118 121 130 134 133 124 136 126 119 162 159 166 170 171 176 177 194
308 290 281 258 221 204 194 187 178 171 167 161 155 154 149 145 132 132 131 132 130 124 112 109 113 129 124 127 112 112 124 149 164 173 175 184 209 239
308 289 281 253 218 204 192 184 176 171 169 167 162 161 158 154 146 144 143 139 138 131 120 116 120 125 120 128 122 127 135 139 148 158 178 207 194 206
309 292 278 249 223 203 194 185 179 175 176 176 172 172 168 159 155 152 149 146 141 136 134 130 122 118 114 125 133 134 141 153 162 171 193 217 235 244